Weather in Semyinskoye

Russia / Vladimir Oblast     56°21′53″N   39°45′52″E
temp.,
°C
wind,
m/s
gust,
m/s
humid.,
%
clouds,
%
prec.,
mm/h
press.,
hPa
HPBL,
m
4 march, thu
thu400:00−2wsw51191100 0.1 1005611
03:00−1wsw61396100 0.5 1002659
06:00+1w81597100 1.9 998887
09:000w81598100 2.8 997909
12:000wnw61076100 1.1 9971142
15:00−1nw5880100 1.1 998966
18:00−4nw3789100 0.0 999182
21:00−7nw359594 0.0 1000107
5 march, fri
fri500:00−9nnw239466 0.0 100223
03:00−10nw229574 0.0 100423
06:00−11wnw239672 0.0 100523
09:00−7w369562 0.1 1006262
12:00−4wnw5788100 0.2 1006779
15:00−4nw5781100 0.5 1008930
18:00−8wnw478785 0.1 1010129
21:00−10nw478943 0.1 1013123
6 march, sat
sat600:00−14n339541 0.0 101540
03:00−16nnw239020 0.0 101620
06:00−16nw23870 0.0 101620
09:00−13nw23860 0.0 1017100
12:00−8wnw24790 0.0 1017554
15:00−7wnw357733 0.0 1015976
18:00−9w3386100 0.0 101437
21:00−11sw369094 0.1 101497
7 march, sun
sun700:00−12sw499450 0.0 1011200
03:00−10sw6149066 0.0 1008463
06:00−8sw71492100 0.3 1003745
09:00−6sw91592100 0.7 9981040
12:00−4sw91593100 1.1 9941120
15:00−6nw101592100 3.4 9931015
18:00−7wnw5127898 0.4 995789
21:00−10wsw5137955 0.4 997306
8 march, mon
mon800:00−8sw7157888 0.0 995687
03:00−8sw7149294 0.1 993696
06:00−9w51288100 0.5 993703
09:00−11nw8147999 0.7 995828
12:00−10nw8118599 0.1 999968
15:00−9nw8118899 0.2 1003999
18:00−10nw61189100 0.1 1006606
21:00−13nw4109498 0.1 1009250